Location: Newark
(49.3808°N, 3.1844°E)
Time: 13:38:55
(UTC+00:00)

Vanguard 3 - Visible Passes

Search period start: 18 November 2019 00:00
Search period end: 28 November 2019 00:00
Orbit: 508 x 3263 km, 33.3° (Epoch: 17 November)

Date Brightness Start Highest point End Pass type
(mag) Time Alt. Az. Time Alt. Az. Time Alt. Az.
18 Nov 10.3 18:08:34 10° W 18:22:35 33° SSW 18:32:01 10° SSE visible
18 Nov 10.6 20:28:54 10° WSW 20:33:09 12° SW 20:36:48 10° SSW visible
19 Nov 10.5 16:51:13 10° WSW 17:07:48 41° SSW 17:19:13 10° SE visible
19 Nov 10.4 19:08:53 10° W 19:19:39 23° SW 19:27:26 10° S visible
20 Nov 10.5 17:50:49 10° W 18:05:28 33° SSW 18:15:39 10° SSE visible
20 Nov 10.8 20:11:59 10° WSW 20:16:07 12° SW 20:19:45 10° SSW visible
21 Nov 10.7 16:33:28 10° WSW 16:50:31 41° SSW 17:02:48 10° SE visible
21 Nov 10.7 18:51:19 10° W 19:02:31 22° SW 19:10:51 10° S visible
22 Nov 10.7 17:33:07 10° W 17:48:12 32° SSW 17:59:08 10° SSE visible
22 Nov 11.0 19:55:22 10° WSW 19:58:57 11° SW 20:02:13 10° SW visible
23 Nov 10.8 16:15:49 10° W 16:33:07 41° SSW 16:46:14 10° SE visible
23 Nov 10.9 18:33:49 10° W 18:45:15 21° SW 18:54:03 10° S visible
24 Nov 10.9 17:15:30 10° W 17:30:49 31° SSW 17:42:26 10° SSE visible
24 Nov 11.2 19:39:29 10° WSW 19:41:41 10° SW 19:43:45 10° SW visible
25 Nov 11.1 18:16:28 10° W 18:27:52 20° SW 18:37:01 10° S visible
26 Nov 11.1 16:58:01 10° W 17:13:19 30° SW 17:25:32 10° SSE visible
27 Nov 11.3 17:59:16 10° W 18:10:23 19° SW 18:19:42 10° S visible
